Regional Weather Roundup
Issued by NWS

Home | Current Version | Previous Version | Graphics & Text | Print | Product List | Glossary On
Versions: 1 2 3 4 5 6 7 8 9 10 11 12 13 14 15 16 17 18 19 20 21 22 23 24 25 26 27
000
ASUS45 KBOU 251207
RWRCO

WEATHER ROUNDUP FOR COLORADO
NATIONAL WEATHER SERVICE DENVER/BOULDER CO
600 AM MDT THU MAY 25 2017

NOTE: "FAIR" INDICATES FEW OR NO CLOUDS BELOW 12000 FEET WITH NO
SIGNIFICANT WEATHER AND/OR OBSTRUCTIONS TO VISIBILITY.

COZ001>005-013-030-031-251300-
...NORTHWEST COLORADO...

CITY           SKY/WX    TMP DP  RH WIND       PRES   REMARKS
CRAIG          CLOUDY    56  38  50 CALM      29.65R
HAYDEN         FAIR      54  36  50 S6        29.68S
MEEKER         CLOUDY    62  33  33 SW22G33   29.70R
RABBIT EARS PA LGT RAIN  39  32  75 W7G18     29.90R
STEAMBOAT SPGS MOCLDY    49  40  70 S5        29.71R
WALDEN           N/A     50  34  53 SW12      29.75F
$$

COZ006>008-011-251300-
...WEST CENTRAL VALLEYS...

CITY           SKY/WX    TMP DP  RH WIND       PRES   REMARKS
GRAND JUNCTION MOCLDY    63  34  33 E3        29.60S
MONTROSE       FAIR      64  25  22 S9        29.71R
EAGLE          FAIR      49  37  63 S6        29.73S
RIFLE          FAIR      54  35  48 E3        29.65S
DELTA          FAIR      62  30  30 E6        29.66S
NUCLA          FAIR      63  23  22 S5        29.75S
$$

COZ017>023-064>068-251300-
...SOUTHWEST COLORADO...

CITY           SKY/WX    TMP DP  RH WIND       PRES   REMARKS
DURANGO        FAIR      44  29  55 NE3       29.82F
CORTEZ         FAIR      62  20  19 CALM      29.77R
PAGOSA SPRINGS FAIR      49  26  41 CALM      29.89S
TELLURIDE      MOCLDY    56  21  25 S5        29.95S
WOLF CREEK PAS MOCLDY    34  21  60 S16G22    30.13F WCI  23
$$

COZ009-010-012-014-032>034-037-058>063-251300-
...CENTRAL COLORADO...

CITY           SKY/WX    TMP DP  RH WIND       PRES   REMARKS
ASPEN          CLOUDY    54  31  41 MISG      29.79R
BUENA VISTA    FAIR      46  31  56 CALM      29.80S
COPPER MTN     MOCLDY    41  25  52 W20G28    30.01S
BERTHOUD PASS  FAIR      34  23  64 W35G54    29.97F WCI  19
COTTONWOOD PAS FAIR      54  18  24 NW6       29.90S
GUNNISON       FAIR      46  35  65 CALM      29.82S
KREMMLING      FAIR      50  41  71 N3        29.76S
LEADVILLE      MOCLDY    46  23  40 W5        29.90R
MONARCH PASS   MOCLDY    39  19  45 W43G54    30.12F
SALIDA         FAIR      54  26  34 W5        29.86F
SUNLIGHT       MOCLDY    39  28  65 SW14G22   29.96F
WILKERSON PASS FAIR      37  23  56 SW16G24   29.99S
$$

COZ069>075-251300-
...SAN LUIS VALLEY/SANGRE DE CRISTO MOUNTAINS...

CITY           SKY/WX    TMP DP  RH WIND       PRES   REMARKS
ALAMOSA        FAIR      55  30  38 W16       29.83S
DEL NORTE      FAIR      42  23  46 W8        29.87R
LA VETA PASS   FAIR      45  23  42 S23G39    30.09R
SAGUACHE       FAIR      39  27  60 CALM      29.85R
$$

COZ035-036-038>040-251300-
...NORTHERN COLORADO FRONT RANGE...

CITY           SKY/WX    TMP DP  RH WIND       PRES   REMARKS
DENVER INTL AP MOCLDY    58  37  45 SW5       29.59F
DMNS CITY PARK   N/A     58  37  45 E8        29.59S
AURORA         PTCLDY    53  38  57 S8        29.62F
FRONT RANGE AP FAIR      59  37  44 SW7       29.62S
ERIE MUNI ARPT FAIR      58  39  48 CALM      29.56F
BOULDER MUN AP FAIR      63  36  36 SE5       29.57R
CENTENNIAL     FAIR      51  38  60 S5        29.63F
BROOMFIELD     PTCLDY    59  37  44 S7        29.60R
FORT COLLINS   FAIR      58  42  55 N8        29.57R
LONGMONT       FAIR      62  40  45 SW6       29.58R
$$

COZ041-046-047-076>085-087-088-251300-
...PIKES PEAK/PALMER DIVIDE AND SOUTHERN FOOTHILLS...

CITY           SKY/WX    TMP DP  RH WIND       PRES   REMARKS
COLO. SPRINGS  FAIR      53  35  50 VRB7      29.68R
A. F. ACADEMY  FAIR      49  33  55 NE6       29.70R
SCHRIEVER AFB  FAIR      56  29  36 W5        29.68R
CHEYENNE MTN   MOCLDY    63  23  21 S6        29.67R
ELLICOTT       FAIR     N/A N/A N/A CALM      29.65S
FALCON         FAIR      51  31  46 W6        29.72R
FORT CARSON    FAIR      56  35  46 SW8       29.65R
LIMON          FAIR      48  46  93 N8        29.61S
MONUMENT HILL  FAIR      50  32  50 NW6       29.74R
CANON CITY     NOT AVBL
WALSENBURG     FAIR      61  32  33 W8        29.71R
TRINIDAD       FAIR      59  30  33 W13       29.70R
$$

COZ042>045-048>051-090-091-251300-
...NORTHEAST COLORADO...

CITY           SKY/WX    TMP DP  RH WIND       PRES   REMARKS
GREELEY ARPT   NOT AVBL
AKRON          FAIR      55  40  56 W16       29.59R
BURLINGTON     FAIR      49  46  90 SW12      29.54R
WRAY           FAIR      55  46  71 SW13      29.49R
YUMA           FAIR      55  41  58 W9        29.52R
STERLING       FAIR      59  45  58 NW14      29.53S
HOLYOKE        NOT AVBL
FORT MORGAN    FAIR      59  41  51 N9        29.55F
$$

COZ086-089-092>099-251300-
...SOUTHEAST COLORADO...

CITY           SKY/WX    TMP DP  RH WIND       PRES   REMARKS
PUEBLO         FAIR      51  41  68 W5        29.59R
LA JUNTA       FAIR      48  45  89 MISG      29.57R
LAMAR          FAIR      43  41  93 VRB6      29.52R
SPRINGFIELD      N/A     53  37  54 SW8       29.57S
$$




USA.gov is the U.S. government's official web portal to all federal, state and local government web resources and services.